Wind_Speed
82 81 82 82 82 82 82 81 80 80 79 80 80 81 82 82 83 85 87 89 90 91 92 92 93 93 94 95 96 97 98 98 99 99 99 98 98 98 99 99 99 99 99 99 99 99 99 99 99 99 99 98 98 98 98 98 98 99 99 100 101 101 102 103 104 107 113 117 118 122 128 133 137 141 143 143 144 145 145 146 147 148 150 153 156
82 82 82 82 82 81 81 80 80 79 79 80 81 81 81 82 84 86 88 90 90 91 92 92 92 93 93 94 95 95 96 96 96 96 95 95 95 95 96 96 96 96 96 97 97 96 96 96 96 96 95 95 95 95 95 94 94 94 95 96 97 98 99 100 101 104 109 114 115 117 122 127 131 135 138 140 142 142 143 144 145 145 147 149 151
82 82 82 81 81 81 80 80 79 79 80 80 81 81 82 84 86 88 89 90 91 91 91 92 92 92 92 93 94 94 94 94 94 93 92 92 92 93 93 93 93 94 94 94 94 94 94 94 93 93 92 91 92 92 91 91 90 91 91 92 93 94 95 96 98 101 105 109 112 113 117 122 126 130 133 136 138 140 140 141 142 143 144 145 147
82 82 81 81 81 80 80 80 79 80 80 81 81 82 83 85 87 88 89 90 91 91 91 91 91 91 92 92 92 92 92 92 92 91 90 90 90 90 90 90 91 92 92 92 92 91 91 90 90 89 88 88 88 88 88 88 88 88 89 89 90 90 92 93 95 97 100 104 107 109 113 117 121 125 129 132 135 137 138 139 139 140 142 143 144
83 82 82 81 81 81 81 80 80 81 81 81 82 83 85 87 88 89 90 90 90 91 91 91 91 91 91 91 91 91 91 91 90 89 89 88 88 88 88 88 89 90 90 89 89 88 87 87 86 86 85 85 85 85 85 85 86 86 86 87 87 87 89 90 91 93 95 99 102 105 109 114 118 121 125 128 131 133 135 137 138 138 139 140 142
84 83 83 82 82 82 82 82 82 82 82 83 84 85 87 88 89 89 90 90 90 90 90 90 90 90 90 90 90 90 90 90 89 88 87 86 86 85 86 86 87 88 87 86 86 84 84 83 83 82 82 82 82 82 83 83 84 84 84 84 85 85 86 87 89 90 92 95 98 101 105 110 114 117 121 125 128 130 132 134 136 137 137 138 139
85 84 84 83 83 83 83 84 84 84 84 84 86 87 88 89 89 89 90 90 90 90 90 89 89 89 89 89 89 89 89 88 87 86 85 84 84 84 84 85 85 85 84 84 83 82 81 80 80 79 79 79 79 80 80 81 81 82 82 82 82 83 84 85 86 87 90 92 95 98 102 106 110 113 117 121 124 127 130 131 134 135 136 136 137
85 85 84 84 84 84 85 85 85 85 85 86 87 88 89 89 89 89 90 90 90 90 89 89 88 89 89 89 88 88 88 86 85 83 82 82 82 82 82 83 82 82 82 81 80 80 79 78 77 77 76 76 77 77 78 79 79 79 80 80 80 81 82 83 84 85 87 89 92 95 99 103 107 111 113 117 120 124 127 129 130 132 133 134 135
86 85 85 85 85 85 86 86 85 86 87 88 89 89 89 89 89 90 90 90 90 89 88 88 88 88 88 88 87 87 86 84 83 81 80 80 80 80 80 80 80 80 79 79 79 78 77 76 75 74 74 74 74 75 76 76 77 77 78 78 78 79 80 81 83 84 85 87 90 93 96 100 105 108 110 112 115 119 122 124 127 129 130 131 132
86 86 86 86 86 86 86 86 86 87 88 89 90 90 90 90 90 91 91 90 90 89 88 88 88 88 87 87 86 85 84 83 81 79 79 78 78 78 78 79 78 78 78 77 77 76 75 74 73 72 72 72 72 72 73 74 74 75 75 75 75 76 77 79 81 82 84 86 88 90 93 98 101 104 106 109 111 114 117 119 122 125 127 129 130
87 87 87 86 87 87 86 86 87 88 89 90 91 91 91 91 91 91 91 90 89 88 88 88 88 87 86 85 84 83 83 81 79 78 77 77 75 75 76 77 77 76 76 76 76 75 73 72 71 70 70 70 70 70 71 71 71 72 72 72 72 73 75 77 79 81 82 84 86 88 91 94 98 101 104 106 108 110 112 115 118 121 124 126 128
88 87 87 87 87 87 86 87 88 89 90 91 92 91 91 91 91 91 90 89 88 88 88 87 87 86 85 84 82 82 81 80 78 76 76 75 73 72 74 76 77 75 74 74 74 73 71 70 70 69 68 67 67 68 68 68 69 69 70 70 70 72 73 75 77 79 81 82 84 87 89 92 95 98 101 104 105 107 109 112 115 118 120 123 126
89 88 88 88 88 87 87 88 89 90 91 92 92 91 91 91 91 90 89 88 88 87 87 87 86 85 84 82 81 81 80 79 76 75 75 74 71 70 71 74 75 75 74 73 72 71 70 69 68 68 66 65 65 65 66 66 66 66 67 68 69 71 72 74 75 77 78 80 82 84 87 89 92 95 98 101 102 105 107 110 112 114 116 119 122
89 89 89 89 88 87 88 88 90 91 92 92 92 91 90 90 90 89 88 87 87 86 86 86 85 84 82 80 80 80 79 77 74 74 73 72 70 69 70 72 73 74 74 72 70 69 68 68 66 66 65 63 63 63 63 63 63 64 65 65 67 69 71 73 74 75 76 78 79 82 85 87 89 93 96 98 100 103 105 107 110 111 113 115 118
90 90 89 89 88 88 88 89 90 91 91 91 91 90 90 90 89 88 86 85 85 85 85 84 83 82 81 80 79 79 78 75 73 72 72 71 69 68 69 70 71 72 72 70 69 69 68 67 65 64 63 62 61 61 60 61 61 61 62 63 65 67 69 71 72 73 74 75 77 79 82 85 87 90 93 96 98 100 102 104 106 108 109 111 114
90 90 89 88 88 88 88 89 90 91 91 91 90 89 89 88 88 86 85 84 84 84 83 82 82 81 80 79 78 77 76 74 71 71 71 69 68 68 68 68 69 70 70 69 68 68 67 66 64 63 61 61 60 59 58 58 58 59 60 62 63 65 67 69 70 71 72 73 74 77 80 83 85 87 90 93 95 97 98 100 103 105 106 108 111
91 90 89 88 88 87 88 89 90 90 90 89 89 88 88 87 86 84 83 83 83 82 82 81 81 81 80 78 76 75 74 73 70 70 70 68 66 66 66 67 67 67 67 67 67 68 67 65 64 62 61 60 59 58 57 56 56 57 59 61 62 63 66 67 67 68 69 70 72 75 78 80 82 84 87 90 93 94 96 98 100 102 103 105 107
90 89 89 88 87 88 88 89 89 89 89 88 87 87 86 85 84 82 81 81 81 81 80 79 80 80 79 76 74 72 73 72 69 68 68 66 64 64 64 65 65 65 65 66 66 66 66 64 63 61 61 60 59 58 57 55 55 56 57 59 61 62 64 64 64 65 66 68 71 74 76 77 78 81 84 88 90 92 93 95 97 98 99 102 104
90 89 88 88 87 88 88 88 89 88 87 87 86 86 85 83 82 81 80 80 80 79 79 79 79 80 77 74 72 71 71 71 68 66 65 63 61 61 63 63 63 63 63 64 65 64 64 63 61 60 60 59 58 58 57 55 54 55 57 58 60 62 62 62 62 64 65 67 69 71 73 75 77 79 82 85 87 88 89 91 94 96 97 99 101
89 88 88 88 88 88 88 88 87 87 86 85 85 84 83 81 80 80 79 78 78 78 78 78 78 78 75 72 70 69 68 68 67 64 62 61 59 59 60 62 62 61 62 63 63 63 62 61 61 59 58 57 57 57 56 54 53 54 56 58 59 60 60 61 63 64 65 66 67 69 71 73 75 77 80 82 84 85 86 88 91 93 95 97 99
89 88 88 88 88 88 87 86 86 85 84 84 83 82 81 79 79 79 78 77 76 76 77 77 76 75 74 71 69 67 66 66 65 62 60 59 58 57 58 60 59 59 60 61 61 61 61 61 60 59 57 56 55 55 55 55 53 53 55 57 58 59 60 61 63 64 64 64 66 67 69 71 72 74 76 79 82 82 83 84 87 90 92 94 96
88 88 88 88 87 87 86 85 84 84 83 82 81 80 79 78 78 77 75 75 75 76 76 75 73 73 72 70 67 65 64 63 62 60 58 57 57 56 56 57 57 57 59 60 60 59 60 60 60 58 56 55 54 54 54 54 53 52 53 55 56 57 59 61 63 63 63 64 65 67 69 69 69 70 72 75 79 80 81 82 84 86 89 91 93
88 88 88 87 86 85 84 83 83 82 81 80 79 79 78 77 76 75 74 73 73 74 74 72 71 71 70 68 66 63 62 61 60 59 57 56 56 55 55 55 55 55 57 58 59 59 59 59 59 57 56 54 53 53 53 53 53 52 53 54 54 55 57 60 61 62 63 64 65 66 68 68 68 68 69 71 75 77 78 79 80 82 85 88 90
88 88 87 86 85 84 83 82 81 80 79 78 77 77 77 76 74 73 72 72 72 72 71 70 68 68 68 67 64 62 60 58 57 56 57 56 55 55 54 54 54 54 55 56 57 57 58 58 58 57 55 54 53 53 53 53 52 52 52 53 53 54 56 57 59 61 62 63 65 66 67 67 67 67 67 69 71 73 74 76 77 79 82 85 87
88 87 85 84 83 82 81 80 79 78 77 76 76 76 75 74 73 72 71 70 70 70 69 68 66 66 65 64 63 61 59 57 55 55 55 56 55 54 54 55 54 54 54 55 55 56 57 57 57 56 55 54 54 53 53 52 52 52 52 53 53 53 54 56 57 58 60 62 64 65 66 67 67 67 67 67 68 69 70 71 73 76 79 81 83
86 85 84 82 81 80 79 79 77 76 75 75 75 75 73 72 71 71 70 69 68 67 67 65 64 63 63 62 61 60 58 56 54 54 54 54 54 54 55 55 55 54 54 54 54 54 55 56 56 55 55 55 55 54 54 53 52 52 52 52 52 52 53 54 55 57 58 60 62 64 66 67 67 67 67 67 67 67 67 68 69 72 75 77 79
84 83 82 80 79 78 77 77 76 75 75 74 74 73 72 71 70 70 68 67 66 65 64 63 61 61 61 60 59 60 59 56 54 54 52 52 52 53 54 55 55 55 55 54 54 55 56 56 55 54 55 55 55 55 55 54 53 53 52 52 52 52 52 52 53 55 56 58 59 62 64 65 66 66 67 67 67 67 66 65 66 68 70 71 73
82 81 80 78 77 76 75 75 74 74 74 74 73 72 71 70 70 68 66 64 63 63 62 60 59 59 60 59 58 59 59 57 54 53 52 51 51 52 54 55 55 56 56 55 55 56 57 56 55 54 54 54 55 55 55 54 54 53 53 52 52 51 51 51 52 53 54 56 57 60 62 63 64 64 65 66 67 67 66 64 64 64 65 65 67
80 79 77 76 75 75 74 74 74 74 73 73 72 72 71 70 69 67 65 62 60 60 59 58 58 58 58 58 58 59 60 59 56 53 52 52 52 53 54 55 56 56 56 56 56 58 59 58 56 56 55 55 55 55 55 54 53 53 53 52 52 52 51 51 51 51 52 54 56 59 60 61 61 62 63 64 66 66 66 64 63 61 60 60 63
78 76 75 74 74 73 73 73 73 73 72 72 72 72 71 69 67 65 63 61 58 57 56 56 56 56 57 58 58 58 58 58 57 55 53 52 53 55 56 57 57 57 56 55 56 59 59 58 58 58 57 55 55 55 54 53 52 51 50 49 49 50 51 51 51 51 51 53 55 57 58 59 60 60 61 62 64 64 64 62 61 60 58 57 60
75 74 73 73 73 73 73 73 73 72 71 71 71 71 71 70 67 63 61 59 57 55 54 54 55 55 55 56 58 59 59 59 59 57 55 53 53 53 55 56 57 56 56 55 56 57 57 57 57 57 56 54 54 53 52 51 50 49 47 46 46 46 48 50 50 50 51 52 53 54 55 57 58 58 59 60 61 61 61 60 59 57 56 56 59
73 72 72 72 72 72 72 72 72 71 71 70 70 70 70 69 67 63 59 56 54 52 51 51 53 53 53 54 55 58 60 61 62 61 60 58 56 55 55 56 56 55 54 54 55 56 57 57 58 58 57 55 54 52 50 49 47 46 45 43 43 43 44 47 49 50 50 51 51 52 53 54 55 56 56 57 58 59 59 58 56 55 54 56 59
71 71 71 71 72 72 72 71 71 70 70 70 70 70 68 67 66 64 61 57 54 51 49 49 50 51 52 53 54 55 57 58 60 61 61 60 59 58 57 57 57 55 55 54 54 55 56 57 58 58 57 57 56 55 53 51 48 46 44 43 42 42 42 43 45 47 49 49 49 50 51 52 53 54 54 54 55 56 57 56 54 52 53 55 59
69 70 70 71 71 71 71 71 70 70 70 70 69 69 67 65 64 63 62 60 57 54 51 48 48 48 50 52 54 55 55 56 56 56 57 58 58 58 58 58 58 57 56 55 55 55 56 56 57 57 57 56 56 56 55 53 51 49 47 45 44 43 42 41 42 44 45 47 48 48 49 49 51 52 52 52 52 53 53 53 53 52 51 53 58
69 70 70 70 71 71 70 70 70 69 69 69 69 67 65 64 62 61 60 60 59 58 55 52 50 49 49 51 53 54 55 55 54 54 54 54 55 55 56 58 58 57 56 56 55 55 56 57 57 57 57 57 57 56 54 53 52 51 49 47 45 44 42 41 40 41 42 44 45 46 47 48 49 50 51 51 50 49 49 50 52 52 51 52 56
69 70 70 70 70 70 69 69 69 69 69 69 67 66 64 63 61 60 59 58 58 58 57 55 53 52 51 52 53 55 55 55 55 55 55 54 54 53 54 55 56 56 56 55 55 55 56 57 57 58 58 58 58 56 55 53 52 51 50 48 47 45 43 41 39 39 40 41 43 44 45 46 48 48 50 50 49 47 47 47 49 51 51 52 55
69 69 69 69 69 69 69 68 68 68 68 68 66 65 63 62 60 60 59 58 57 57 56 56 55 54 54 54 54 55 56 56 55 55 56 55 55 54 54 55 55 56 56 56 55 55 56 56 57 57 58 58 58 56 55 53 52 52 50 49 47 45 43 41 39 38 37 38 39 41 42 45 46 47 48 49 48 45 45 46 48 49 50 51 53
69 69 69 69 68 68 68 68 68 68 67 66 65 63 62 61 60 59 58 58 57 56 56 55 55 55 56 56 56 56 56 56 56 57 57 56 56 55 55 55 55 55 55 55 55 55 55 56 56 56 57 57 56 55 54 53 52 52 50 48 45 43 42 41 39 37 36 36 37 38 40 42 44 45 46 47 45 44 44 45 47 47 48 50 51
68 68 68 68 68 68 67 67 68 67 66 65 63 62 61 60 59 59 58 58 57 56 55 55 55 55 56 56 57 57 57 57 58 58 58 58 57 57 56 56 56 55 54 54 54 53 54 54 55 55 55 55 54 54 53 52 52 51 49 47 44 41 40 39 38 37 36 35 35 36 38 39 40 42 43 44 42 41 42 44 45 46 47 48 48
68 68 67 67 67 67 67 67 67 66 66 64 62 61 61 60 59 58 58 57 57 56 56 55 55 55 55 56 57 57 58 58 59 60 60 60 59 59 58 58 57 56 56 55 54 53 53 53 53 52 52 52 52 52 52 51 50 49 48 45 42 39 37 37 37 37 36 35 34 35 36 37 37 39 40 40 39 39 41 43 44 46 46 45 45
67 67 67 66 66 66 67 67 66 66 64 63 62 61 60 59 58 58 58 57 57 57 56 56 56 55 55 56 56 56 57 58 60 61 61 61 61 61 60 59 59 58 58 57 56 55 54 53 52 51 50 50 50 49 49 49 48 47 45 44 41 38 35 35 36 37 36 34 33 33 33 34 35 36 37 37 37 38 40 42 43 44 44 43 43
67 67 66 66 66 66 67 66 66 65 63 62 61 60 60 59 58 58 57 57 56 56 56 56 56 56 56 56 56 56 57 58 59 60 61 61 61 61 60 59 58 58 58 58 57 56 55 54 52 51 49 48 47 46 46 45 44 43 43 42 39 37 35 34 35 36 35 33 31 30 31 31 33 34 34 35 36 37 39 40 42 42 41 41 41
66 66 66 65 66 66 66 66 65 64 63 61 60 60 59 59 58 57 57 57 56 56 56 56 56 57 57 57 56 57 57 58 59 59 60 60 60 59 59 58 58 57 57 56 55 55 54 53 52 51 49 47 45 43 42 42 41 40 39 38 37 35 34 33 33 34 33 31 29 28 29 30 32 32 32 33 35 36 37 39 39 40 39 39 39
65 65 65 65 65 66 66 65 65 63 62 61 60 59 59 58 58 57 57 56 56 55 55 55 56 57 57 57 57 58 58 59 60 60 60 60 60 58 58 57 57 56 55 54 53 52 52 51 50 50 48 46 44 41 40 39 38 37 36 35 34 33 32 32 32 32 31 29 27 27 28 29 30 30 31 32 34 35 36 36 37 37 37 38 38
65 65 65 65 65 65 65 64 63 62 61 60 59 59 58 57 57 57 56 56 56 55 55 55 55 56 57 57 58 59 60 60 60 61 61 60 59 58 57 56 56 55 54 52 51 50 49 48 48 47 45 44 42 40 38 36 35 34 33 33 32 31 30 30 30 29 28 27 26 27 28 28 29 29 30 32 33 33 34 34 35 35 36 37 38
64 64 64 65 65 65 65 64 63 62 60 60 59 59 58 57 56 56 55 55 55 55 55 55 55 56 57 58 58 59 60 60 60 61 60 59 58 56 56 55 55 54 52 51 49 48 47 46 45 44 42 41 39 38 36 34 33 32 31 30 30 29 29 28 28 27 26 26 26 26 27 27 27 28 29 30 30 31 32 32 33 34 35 36 36
64 64 64 64 64 65 64 63 62 61 60 59 59 58 58 57 56 56 55 55 55 55 55 55 55 56 57 58 59 59 60 60 60 60 59 57 56 55 55 54 53 52 50 49 48 46 45 44 42 41 39 38 36 35 33 32 31 30 29 28 28 27 27 26 26 26 25 25 25 25 26 26 26 27 27 28 29 30 30 31 31 32 33 33 34
63 64 64 64 64 64 64 62 61 60 60 59 58 58 57 57 56 55 55 55 55 55 55 55 55 56 57 58 59 59 60 60 60 59 57 56 55 54 54 53 51 50 49 47 46 44 43 42 40 38 37 35 34 32 31 30 29 28 27 26 26 25 25 25 24 24 24 24 24 24 24 24 25 25 25 26 27 28 28 29 30 30 31 31 32
63 64 64 64 64 63 63 62 61 60 60 59 58 58 57 56 56 55 55 54 54 54 54 55 55 56 57 58 59 60 60 60 59 58 56 55 54 53 52 51 49 48 47 45 44 42 41 39 38 36 34 33 31 30 29 28 27 26 25 24 24 24 23 23 23 23 22 22 22 22 22 23 23 23 24 25 25 26 27 28 28 28 29 29 30
63 64 64 64 63 63 62 61 60 60 59 59 58 58 57 56 56 55 54 54 54 54 54 55 55 56 57 58 59 60 60 60 59 57 55 54 53 52 51 50 48 47 45 44 42 40 39 38 36 34 32 31 29 28 27 26 25 24 23 23 22 22 22 22 22 21 21 21 21 21 21 21 21 22 23 23 24 25 25 26 26 26 27 27 28
64 64 64 64 63 62 61 60 60 59 59 58 58 57 57 56 55 55 54 54 54 54 54 54 55 56 57 58 59 59 59 59 58 56 54 53 52 51 50 49 47 45 44 42 40 39 37 36 34 32 30 29 28 27 26 25 24 23 22 21 21 20 20 20 20 20 19 19 19 19 19 19 20 20 21 22 22 23 23 23 23 24 24 25 26
Wind_Direction
307 306 305 304 303 302 302 301 300 299 299 297 296 295 294 294 294 293 293 292 293 293 293 292 292 291 290 289 288 287 287 286 286 285 285 285 285 284 283 283 282 281 280 280 279 278 277 276 275 274 272 271 270 269 267 266 265 263 262 260 259 257 255 253 252 251 251 250 248 247 247 248 248 249 249 249 248 247 246 245 245 244 243 243 243
307 306 305 305 304 303 303 302 302 301 300 298 298 297 297 297 296 295 295 295 296 295 295 294 293 292 291 290 289 288 288 287 287 287 287 286 286 285 284 284 283 282 281 280 279 279 278 277 276 274 273 272 271 270 268 267 265 264 262 260 259 257 255 253 252 250 250 250 249 247 247 247 247 248 248 249 248 247 246 246 245 244 243 243 242
307 306 306 305 305 304 304 304 303 302 301 300 300 300 300 299 298 297 298 298 298 297 297 296 295 294 293 291 290 290 289 289 289 288 288 288 287 286 285 285 284 283 282 281 280 279 278 277 276 275 274 273 272 270 269 268 266 264 262 261 259 257 255 253 252 250 250 250 249 248 247 247 246 246 247 247 248 248 247 246 245 244 244 243 242
307 307 306 306 306 306 305 305 305 304 303 303 302 302 301 300 299 299 300 300 300 299 298 297 296 295 294 293 292 291 291 291 290 290 289 289 288 287 286 285 285 283 282 282 281 280 279 278 277 276 275 274 272 271 270 269 267 265 263 261 259 258 256 254 252 251 250 250 249 248 247 247 247 246 246 246 246 247 247 247 246 245 244 243 243
308 308 307 307 307 307 307 307 306 306 305 305 305 303 302 301 301 301 301 301 301 300 299 298 297 296 295 294 293 293 293 292 292 291 290 289 289 288 287 286 285 284 283 282 281 280 279 278 277 276 275 274 273 272 271 269 267 266 264 262 260 258 256 255 253 251 250 250 249 248 247 247 246 246 246 246 245 246 246 246 246 245 244 243 243
309 309 308 308 308 308 308 308 308 307 307 307 305 304 302 302 302 302 302 302 301 300 299 299 298 297 296 295 294 294 293 293 292 292 291 290 290 289 288 287 286 285 284 283 281 281 280 279 278 277 276 275 274 272 271 269 268 266 265 263 261 259 257 256 254 252 251 250 249 248 247 247 246 246 246 246 246 245 245 245 246 245 245 244 243
309 309 309 309 309 309 309 309 308 308 308 307 305 304 303 303 303 303 303 303 302 301 300 299 298 297 296 296 295 295 294 294 293 293 292 291 291 290 289 288 287 285 284 283 282 281 281 280 278 277 276 275 274 273 271 270 268 267 266 264 262 260 258 257 255 253 251 250 249 248 247 247 247 246 245 245 245 245 245 245 245 245 245 245 244
309 309 309 309 309 309 309 309 309 309 308 307 305 305 304 304 304 304 304 304 303 302 301 300 299 298 297 297 296 295 295 294 294 293 293 293 292 291 290 288 287 286 285 284 283 282 281 280 279 278 277 276 274 273 272 270 269 268 266 265 263 262 260 258 256 254 252 250 249 248 247 247 247 246 246 245 245 245 245 246 245 245 245 245 245
310 310 309 309 309 309 308 309 309 309 308 307 306 305 305 305 305 305 305 304 304 303 301 300 299 298 298 297 297 296 296 295 294 294 294 294 293 292 290 289 288 287 286 285 284 283 282 281 280 279 278 276 275 273 272 271 269 268 267 265 264 262 261 259 257 255 253 251 249 248 247 247 247 247 246 246 245 245 246 246 246 246 246 245 244
310 310 309 309 308 308 308 309 310 309 308 307 306 306 306 306 306 306 306 305 304 303 302 300 300 299 298 298 297 297 296 296 296 296 295 294 293 292 291 289 288 287 287 286 285 284 283 282 281 280 278 276 275 274 272 271 270 268 267 265 264 262 261 259 257 255 253 251 250 249 248 247 247 247 247 246 246 246 246 246 246 246 246 246 245
311 310 309 308 308 308 309 310 310 309 308 308 307 307 307 307 307 306 306 305 304 303 302 301 300 299 299 299 298 298 297 297 297 297 296 295 294 293 292 290 289 288 287 286 286 285 284 283 281 280 278 277 276 274 273 272 271 269 268 267 265 263 261 259 257 255 254 252 250 249 248 247 247 247 247 247 246 245 245 245 245 245 246 246 246
311 310 309 308 308 309 310 310 310 309 309 308 308 308 307 307 307 307 306 305 304 303 302 301 300 300 300 300 299 299 298 298 298 298 297 295 294 293 292 291 290 289 288 287 286 286 285 283 282 280 278 277 276 275 274 272 271 270 269 267 265 263 261 259 257 256 254 252 251 249 248 247 247 247 247 247 246 246 245 245 245 245 245 245 246
311 310 309 308 309 310 311 310 310 309 309 309 308 308 307 307 307 306 306 305 304 303 302 302 301 301 301 301 300 300 299 299 300 299 297 296 295 294 293 291 290 290 288 287 287 286 285 283 282 281 279 278 276 275 274 273 272 271 269 267 265 263 261 259 257 256 254 253 252 250 249 248 247 247 247 247 246 246 245 245 244 244 244 245 245
311 310 309 310 310 311 311 310 310 309 309 309 308 307 307 307 307 306 306 305 304 303 303 302 302 302 301 301 301 301 301 301 300 299 298 296 296 295 293 292 291 290 289 288 288 286 285 284 282 281 280 279 277 276 275 274 273 271 270 268 266 264 263 260 258 256 255 254 252 251 250 248 247 247 247 246 246 245 245 245 245 244 244 244 245
311 310 310 311 311 311 311 310 310 309 309 308 308 307 307 307 306 306 305 305 304 304 303 303 303 302 302 302 302 302 302 301 301 300 298 297 297 296 294 292 291 289 289 289 288 287 286 284 283 282 281 280 278 277 275 274 273 271 270 268 267 265 264 262 260 258 256 254 253 252 251 249 247 247 247 246 246 246 245 245 245 245 244 244 244
311 310 311 311 311 311 311 310 310 309 309 308 307 307 307 307 306 306 305 305 305 304 304 304 304 303 303 303 304 304 303 302 301 300 299 298 298 296 294 292 291 290 290 289 289 287 287 286 285 284 283 281 280 278 276 274 273 272 270 269 267 265 264 263 261 260 258 256 254 253 252 250 249 248 247 247 247 246 246 246 245 245 245 244 244
311 311 311 311 312 311 311 310 309 309 308 307 307 307 307 307 307 306 306 306 305 305 305 305 305 304 304 304 305 305 303 302 302 301 300 299 299 297 294 292 291 290 290 290 289 288 288 287 287 286 285 284 282 281 278 277 275 274 272 270 269 267 265 263 262 261 260 258 256 254 253 251 250 249 248 247 247 246 246 246 245 245 245 245 245
311 311 312 312 312 311 310 310 309 309 308 308 308 308 307 307 307 307 307 307 306 306 306 306 306 305 305 306 306 305 303 303 302 301 300 300 299 296 294 292 291 291 290 290 289 289 288 288 288 288 287 286 285 283 281 279 278 276 275 273 272 269 267 265 264 263 261 259 257 256 254 252 251 250 249 248 247 246 245 246 246 246 245 245 245
312 312 312 312 312 311 311 310 309 309 308 308 308 308 308 308 308 308 308 308 308 308 307 307 306 306 306 306 306 305 304 303 302 302 301 300 298 296 294 293 292 292 290 289 289 289 289 289 289 289 288 287 286 285 283 282 281 279 278 276 275 273 271 269 267 265 262 259 257 256 255 253 252 250 249 249 248 247 246 245 246 246 246 245 245
312 313 313 312 312 311 311 310 309 309 309 309 309 308 308 309 309 309 309 309 309 309 308 308 307 306 307 307 307 305 304 303 303 302 301 300 298 296 295 294 293 292 291 290 290 290 290 290 289 289 288 287 286 285 284 283 282 281 280 278 277 276 275 273 270 266 264 261 259 257 255 254 252 251 251 250 249 248 246 246 245 245 245 245 245
313 313 313 312 312 311 311 310 310 310 310 309 309 309 309 310 310 310 310 310 310 310 309 308 307 307 307 307 307 306 305 303 303 303 301 300 298 297 295 294 294 293 292 291 291 291 291 290 289 289 288 286 286 285 284 283 281 281 280 279 279 278 276 274 271 269 267 265 263 260 258 255 253 252 251 251 250 249 247 246 246 245 245 245 245
314 314 313 312 312 312 311 311 311 311 310 310 310 310 310 311 311 311 311 311 311 310 309 308 308 308 308 307 307 306 305 304 304 303 302 301 299 298 296 295 294 293 292 292 292 292 291 290 290 289 288 287 286 285 284 284 282 281 280 279 279 279 277 275 272 271 269 267 265 263 261 258 255 252 251 250 251 250 249 247 246 246 245 245 245
314 314 313 313 312 312 312 312 311 311 310 311 311 311 311 311 312 312 312 312 312 310 309 309 309 309 308 307 307 307 306 305 305 304 303 302 300 299 298 296 295 294 293 293 293 293 292 291 290 290 289 288 287 286 285 284 283 282 281 279 278 277 275 274 272 271 270 268 266 265 263 261 259 256 253 250 249 249 249 248 247 247 246 246 245
314 314 313 313 313 313 312 312 311 311 311 311 311 312 312 312 313 313 313 313 312 311 310 310 310 309 308 307 308 307 307 306 306 306 304 302 301 301 299 297 296 295 294 293 293 293 293 292 291 291 290 289 288 287 286 286 285 283 282 280 279 276 274 272 271 270 269 268 267 266 265 264 262 259 256 253 251 249 247 247 247 247 247 246 246
314 314 314 313 313 313 313 312 311 312 312 312 312 313 313 313 314 314 314 314 313 312 311 311 310 309 308 308 308 308 308 308 308 307 305 304 304 303 301 298 297 296 295 294 294 294 293 293 292 292 291 291 290 289 288 287 286 284 283 281 279 276 273 271 269 267 266 266 265 265 265 265 264 262 259 257 254 251 248 246 245 245 246 246 247
315 314 314 314 314 313 313 312 312 313 313 313 313 313 314 315 315 315 316 315 314 313 312 311 311 310 309 309 309 309 309 309 309 308 307 307 306 304 302 300 299 298 296 296 296 296 295 294 294 294 294 293 292 291 290 289 288 286 284 282 280 277 274 271 268 266 264 263 263 263 264 264 263 263 261 260 257 254 251 248 245 243 243 244 245
315 314 314 314 314 313 313 313 313 314 314 314 314 314 315 316 316 316 317 316 314 313 312 311 311 310 310 310 310 310 309 310 310 309 309 309 307 305 303 302 301 300 299 299 299 299 297 296 295 295 295 294 293 293 292 291 290 289 287 284 282 279 275 271 268 266 264 263 262 261 261 262 262 262 262 261 260 258 254 251 248 245 243 242 242
315 315 315 315 314 313 313 314 314 315 315 315 316 316 316 317 317 317 317 316 315 313 312 312 312 311 311 311 311 310 309 310 310 310 310 310 309 308 307 305 304 303 303 303 303 301 298 297 297 296 295 294 294 293 292 292 291 290 288 286 283 280 276 273 270 267 265 263 262 261 260 260 260 261 261 261 260 259 257 254 251 248 245 242 241
315 315 315 315 314 314 315 315 316 316 316 317 317 317 317 318 318 318 317 316 315 314 313 313 313 313 312 312 312 311 311 311 312 313 313 314 313 311 310 308 307 306 305 305 305 302 300 300 299 297 296 296 295 294 293 293 292 291 290 288 285 282 278 275 272 269 266 264 262 261 260 260 259 259 259 259 259 259 258 257 255 251 248 244 242
316 315 315 315 315 315 316 316 317 317 318 318 318 318 318 319 319 318 317 316 315 314 314 314 314 313 313 312 312 311 311 312 313 314 315 316 315 313 311 310 308 307 306 306 303 301 300 300 299 297 297 296 294 293 293 292 291 289 288 287 285 282 280 277 274 270 267 264 262 261 260 259 259 258 258 258 258 258 258 257 256 254 251 247 243
316 316 315 316 316 317 317 318 318 318 319 319 319 319 319 319 319 318 317 316 316 315 315 315 314 314 313 313 313 313 314 314 315 315 316 316 315 313 311 309 307 307 306 305 302 300 299 298 297 296 295 294 293 292 291 290 289 288 285 283 281 280 279 278 276 273 269 265 263 261 260 259 258 258 257 257 258 258 257 257 256 254 251 248 245
317 316 316 317 317 318 318 319 319 319 320 320 320 320 320 319 319 318 317 316 316 316 316 315 314 313 313 313 314 314 315 316 316 317 317 317 316 314 312 309 308 307 306 304 303 302 301 300 299 298 298 297 296 294 293 292 290 288 285 283 280 278 277 277 277 275 272 268 265 262 260 258 258 258 257 256 257 257 257 255 254 252 250 248 245
317 317 318 318 319 319 319 320 320 320 321 321 321 320 320 319 319 318 318 317 317 316 316 314 313 313 312 313 313 313 313 314 314 315 316 316 316 315 313 311 310 309 308 306 304 303 302 301 301 300 301 301 300 299 299 297 295 292 289 286 282 279 276 275 274 274 273 271 268 265 262 259 258 257 256 255 255 256 256 256 254 251 249 247 245
318 318 319 319 320 320 320 321 321 321 321 321 321 321 320 320 319 319 319 318 318 317 316 315 313 313 312 312 312 312 312 311 312 313 314 314 315 315 314 312 311 311 309 308 307 305 304 303 302 302 302 302 301 301 301 300 299 296 293 290 287 283 279 275 273 272 271 271 269 266 264 262 260 259 258 256 254 253 254 254 254 252 248 246 245
319 320 320 320 320 321 321 321 322 322 322 322 322 321 321 320 320 320 319 319 318 318 317 316 316 315 314 313 313 312 311 311 312 312 313 313 314 314 314 313 312 311 310 309 308 307 305 305 304 303 303 302 302 302 301 300 299 297 295 293 291 287 283 278 274 271 270 268 267 266 264 263 261 260 260 258 255 253 251 251 251 251 248 246 245
321 321 321 321 321 321 322 322 322 322 322 322 322 322 321 321 320 320 320 319 319 318 318 318 318 317 316 316 315 314 313 313 314 314 314 314 314 314 314 313 312 312 310 309 308 307 306 305 304 304 303 303 302 301 301 300 298 297 296 294 292 290 286 282 277 273 270 267 265 264 263 262 260 259 259 259 257 255 252 250 249 249 247 246 245
322 321 322 322 322 322 322 322 323 323 323 323 323 322 322 321 321 321 320 320 319 318 318 319 319 319 318 318 317 316 315 315 316 316 316 316 316 316 315 314 314 312 311 310 309 308 307 305 304 304 303 302 301 301 300 299 297 296 295 294 292 290 287 284 280 276 272 268 265 262 261 260 259 258 258 258 257 256 253 251 249 247 246 245 245
322 322 322 323 323 323 323 323 323 323 324 324 323 322 322 322 322 321 321 320 319 319 319 319 320 320 319 319 319 318 317 317 317 318 318 318 317 317 316 316 314 313 311 309 308 307 306 305 304 303 302 301 300 299 298 298 296 296 295 294 292 290 287 285 282 278 273 269 265 262 259 258 257 257 257 257 256 255 253 251 249 247 246 245 244
323 323 323 323 323 323 323 324 324 324 324 324 324 323 323 322 322 322 321 321 320 320 320 320 321 321 320 320 320 320 319 319 319 319 319 319 319 318 318 316 315 313 311 309 308 307 305 304 303 302 301 300 299 298 298 297 296 295 294 293 291 289 287 285 283 279 275 270 266 262 260 258 257 256 256 256 255 253 251 250 249 247 246 245 244
323 323 324 324 324 323 324 324 324 325 325 325 324 324 323 323 323 322 322 322 321 321 321 321 322 321 321 321 321 321 320 320 321 321 321 321 320 320 319 317 316 314 313 311 310 308 306 304 303 301 300 299 298 298 297 297 296 295 294 293 291 289 286 284 282 279 275 271 267 264 262 260 258 256 256 255 254 252 250 248 248 247 246 245 244
324 324 324 324 324 324 324 325 325 325 325 325 325 324 324 324 324 323 323 323 322 322 322 322 322 322 322 322 322 321 321 321 322 322 322 322 321 320 319 318 317 315 314 313 312 310 308 306 304 302 300 298 298 297 296 296 295 294 293 291 291 289 286 283 280 278 275 272 269 266 263 262 259 257 255 254 252 250 248 247 247 246 246 245 244
324 324 325 325 325 325 325 325 326 326 326 325 325 325 325 324 324 324 324 323 323 322 323 323 323 323 323 323 323 322 322 323 323 323 322 322 321 320 319 317 316 315 313 312 311 310 308 307 305 303 301 300 298 297 295 294 293 292 290 289 289 288 285 282 279 277 275 272 270 267 265 262 260 257 255 253 250 248 247 246 246 246 245 244 243
325 325 325 325 325 325 326 326 326 326 326 326 326 326 325 325 325 324 324 324 323 323 323 324 324 324 324 324 324 323 323 324 324 323 323 322 321 320 318 317 315 314 312 311 310 309 308 306 305 304 302 301 300 298 295 293 292 290 289 288 287 286 283 280 278 276 275 274 272 269 265 261 258 256 254 251 249 248 246 246 245 245 244 243 242
325 325 325 326 326 326 326 327 327 327 327 327 327 326 326 326 325 325 324 324 324 324 324 325 325 325 325 325 325 324 325 325 325 325 324 323 321 320 318 317 315 314 312 311 310 309 308 306 305 304 304 303 301 299 296 294 292 290 288 287 286 284 282 280 277 276 275 274 271 267 263 259 257 255 252 250 249 247 246 245 244 243 242 241 240
326 326 326 326 326 326 327 327 327 327 327 327 327 327 326 326 325 325 325 324 324 324 325 325 325 326 325 325 325 326 326 327 326 326 324 323 321 320 319 317 316 314 313 312 311 309 308 307 306 305 304 303 301 299 297 295 293 291 289 287 286 284 281 279 277 276 274 272 268 264 260 258 256 253 251 249 248 247 246 244 243 242 240 239 238
326 326 326 327 327 327 327 328 328 328 328 328 327 327 327 326 326 326 325 325 325 325 326 326 327 327 327 327 327 327 327 327 327 326 324 323 321 320 319 318 317 315 314 313 312 311 309 308 307 306 304 303 301 299 298 296 294 291 289 287 285 283 281 279 276 274 272 268 264 261 258 256 254 252 250 249 248 246 245 243 241 239 238 237 237
327 326 327 327 328 328 328 328 328 328 328 328 328 328 327 327 327 326 326 326 326 326 326 327 328 328 328 327 327 328 328 328 327 326 325 323 322 321 320 319 318 317 316 315 314 313 311 310 308 307 305 304 302 300 299 297 295 292 289 287 285 283 280 278 275 272 269 266 262 260 257 256 253 251 250 248 246 245 243 241 239 237 236 235 235
327 327 328 328 328 328 328 328 329 329 329 329 328 328 328 328 327 327 327 327 327 327 328 328 329 329 328 328 329 329 329 329 328 327 326 324 323 322 322 321 320 319 318 317 316 315 313 311 310 308 307 305 304 302 301 298 295 293 290 288 285 282 280 277 274 271 268 265 262 259 257 255 253 251 248 247 245 243 242 240 237 236 234 233 232
328 328 329 329 329 329 329 329 329 329 329 329 329 329 329 328 328 328 328 328 328 328 329 329 329 329 329 329 330 330 330 330 329 328 327 326 325 324 323 322 321 321 320 319 318 317 315 313 312 311 309 308 306 305 303 300 298 295 292 289 286 283 280 277 273 271 267 264 261 258 256 254 252 249 247 245 243 241 239 237 236 234 232 231 229
329 329 329 330 330 329 329 329 330 330 330 330 330 329 329 329 329 329 329 329 329 329 329 330 330 330 330 331 331 331 331 331 330 329 328 327 327 326 325 324 324 324 323 322 321 319 317 315 314 313 312 311 309 308 305 303 300 297 294 291 288 284 281 277 273 269 266 262 259 256 254 252 250 248 245 243 240 238 237 235 233 231 229 228 227
330 330 330 330 330 330 330 330 330 330 330 330 330 330 329 329 330 330 330 330 330 330 330 331 331 331 332 332 332 332 332 331 331 330 330 330 329 328 327 327 327 326 326 324 323 320 319 318 317 316 315 314 312 310 308 306 304 301 298 294 291 287 283 278 274 270 267 264 261 258 255 251 248 245 242 240 237 235 234 232 230 228 226 224 223
Height
10175 10169 10162 10156 10149 10143 10137 10131 10124 10119 10113 10107 10101 10095 10089 10084 10077 10071 10064 10057 10052 10047 10041 10035 10029 10023 10017 10011 10004 9998 9993 9988 9983 9978 9975 9971 9967 9962 9957 9953 9949 9944 9940 9936 9932 9930 9929 9926 9923 9921 9921 9921 9919 9919 9920 9920 9922 9924 9925 9928 9931 9934 9939 9943 9948 9945 9930 9927 9940 9947 9946 9947 9949 9952 9958 9966 9975 9984 9994 10003 10012 10020 10029 10038 10045
10164 10157 10151 10144 10137 10131 10125 10119 10112 10106 10100 10093 10087 10081 10075 10069 10062 10055 10049 10043 10037 10032 10025 10019 10014 10007 10001 9995 9988 9983 9978 9972 9967 9963 9959 9955 9951 9945 9940 9936 9931 9926 9922 9918 9914 9912 9910 9907 9904 9902 9902 9902 9901 9899 9900 9902 9903 9905 9906 9908 9910 9912 9917 9922 9924 9924 9915 9908 9918 9928 9926 9926 9930 9933 9935 9941 9949 9957 9968 9978 9987 9997 10005 10014 10021
10153 10146 10140 10133 10127 10120 10113 10107 10100 10094 10087 10080 10074 10067 10061 10054 10047 10040 10035 10029 10023 10016 10010 10004 9998 9992 9985 9979 9973 9967 9962 9957 9952 9948 9943 9939 9934 9929 9924 9919 9913 9909 9904 9900 9897 9894 9891 9889 9886 9885 9885 9884 9882 9881 9882 9884 9885 9886 9886 9888 9891 9892 9896 9901 9902 9903 9899 9894 9899 9909 9908 9905 9911 9915 9915 9920 9926 9933 9941 9952 9963 9973 9982 9990 9998
10142 10136 10129 10122 10115 10108 10101 10095 10088 10081 10074 10067 10061 10054 10047 10040 10033 10027 10021 10015 10008 10001 9995 9988 9982 9976 9969 9963 9957 9951 9946 9941 9937 9932 9928 9923 9919 9913 9908 9902 9896 9891 9887 9883 9880 9877 9874 9872 9869 9869 9868 9867 9865 9865 9865 9866 9866 9867 9867 9869 9872 9874 9876 9881 9883 9884 9884 9882 9882 9890 9891 9887 9889 9894 9895 9899 9906 9911 9918 9928 9938 9948 9958 9966 9976
10130 10123 10116 10109 10102 10095 10089 10082 10075 10068 10061 10054 10048 10040 10033 10026 10020 10014 10007 10001 9994 9987 9980 9974 9967 9960 9954 9947 9942 9936 9931 9926 9921 9917 9912 9908 9903 9898 9892 9886 9880 9874 9870 9866 9863 9861 9858 9856 9854 9853 9852 9851 9849 9848 9848 9848 9848 9848 9849 9850 9853 9856 9858 9861 9864 9866 9868 9867 9866 9871 9873 9868 9867 9872 9875 9879 9886 9892 9898 9904 9912 9922 9933 9942 9952
10117 10110 10103 10096 10089 10082 10076 10069 10062 10055 10048 10042 10034 10026 10019 10013 10007 10000 9994 9987 9980 9973 9966 9959 9952 9946 9939 9933 9928 9922 9916 9911 9906 9902 9897 9892 9887 9882 9876 9870 9863 9858 9854 9850 9847 9845 9843 9841 9840 9838 9837 9836 9834 9833 9832 9831 9831 9831 9832 9833 9836 9838 9840 9842 9845 9848 9850 9851 9851 9853 9854 9851 9848 9852 9857 9860 9865 9872 9878 9883 9889 9897 9907 9918 9927
10104 10097 10090 10083 10077 10070 10063 10056 10049 10043 10036 10029 10021 10013 10006 10000 9993 9987 9980 9973 9966 9959 9952 9945 9938 9931 9925 9920 9914 9908 9902 9897 9892 9888 9883 9878 9872 9866 9860 9854 9847 9842 9838 9835 9832 9830 9828 9827 9825 9823 9823 9821 9819 9817 9816 9815 9815 9815 9815 9817 9819 9821 9823 9825 9828 9830 9832 9833 9835 9836 9836 9834 9831 9833 9838 9842 9845 9851 9857 9864 9869 9874 9883 9894 9904
10093 10086 10078 10071 10064 10058 10051 10044 10037 10031 10023 10015 10008 10001 9994 9987 9980 9973 9966 9959 9952 9945 9938 9931 9924 9917 9912 9906 9900 9894 9889 9883 9878 9874 9869 9863 9857 9851 9844 9838 9832 9827 9823 9820 9818 9816 9814 9812 9811 9809 9808 9807 9805 9802 9801 9800 9800 9800 9800 9802 9804 9805 9806 9808 9810 9812 9814 9816 9818 9819 9819 9817 9814 9814 9819 9824 9828 9832 9837 9844 9851 9856 9864 9875 9884
10081 10074 10067 10059 10052 10046 10039 10032 10026 10019 10010 10002 9995 9988 9981 9974 9967 9959 9952 9945 9938 9931 9924 9916 9910 9904 9898 9893 9886 9880 9875 9869 9864 9860 9855 9849 9843 9836 9829 9823 9817 9813 9809 9806 9803 9801 9800 9798 9797 9796 9794 9792 9790 9788 9787 9786 9785 9785 9786 9787 9789 9789 9790 9791 9792 9794 9797 9799 9800 9802 9803 9800 9797 9798 9803 9809 9813 9816 9820 9828 9835 9839 9845 9856 9864
10069 10062 10055 10048 10040 10034 10027 10021 10014 10006 9997 9990 9982 9974 9967 9960 9953 9945 9938 9931 9924 9917 9910 9903 9896 9891 9885 9879 9873 9867 9861 9855 9851 9847 9841 9835 9829 9823 9815 9808 9803 9800 9796 9792 9789 9788 9787 9785 9783 9782 9780 9778 9777 9775 9773 9772 9772 9771 9772 9773 9775 9775 9774 9774 9775 9777 9780 9781 9783 9785 9786 9784 9783 9784 9788 9793 9797 9801 9805 9812 9819 9822 9826 9833 9841
10057 10050 10042 10035 10028 10021 10015 10008 10000 9992 9984 9976 9968 9960 9953 9946 9939 9932 9924 9917 9910 9903 9896 9889 9883 9877 9872 9866 9860 9853 9846 9841 9837 9833 9827 9821 9817 9810 9801 9793 9789 9787 9784 9779 9776 9774 9774 9772 9770 9768 9766 9765 9764 9762 9760 9759 9759 9759 9758 9759 9760 9760 9759 9758 9759 9760 9762 9764 9766 9769 9770 9769 9769 9771 9773 9775 9780 9787 9791 9795 9800 9803 9807 9813 9818
10045 10037 10030 10022 10015 10009 10002 9995 9986 9978 9970 9962 9954 9947 9940 9933 9926 9919 9912 9904 9897 9890 9883 9876 9870 9864 9859 9853 9847 9839 9832 9827 9824 9819 9813 9807 9804 9799 9789 9780 9774 9773 9771 9767 9764 9762 9760 9758 9756 9754 9754 9753 9751 9750 9748 9747 9747 9746 9746 9745 9745 9744 9743 9743 9743 9744 9746 9748 9750 9752 9754 9755 9756 9757 9758 9759 9765 9772 9775 9776 9780 9784 9790 9795 9797
10032 10024 10016 10008 10002 9996 9989 9981 9973 9964 9956 9949 9941 9934 9927 9920 9913 9906 9899 9892 9884 9877 9870 9863 9857 9851 9845 9840 9834 9826 9819 9814 9811 9805 9799 9793 9790 9787 9779 9769 9762 9759 9756 9755 9753 9751 9748 9745 9743 9741 9741 9741 9740 9738 9736 9735 9734 9734 9732 9731 9730 9728 9727 9728 9728 9729 9731 9733 9735 9736 9738 9741 9742 9743 9743 9745 9749 9753 9755 9757 9760 9766 9773 9777 9779
10018 10010 10002 9995 9989 9983 9976 9968 9960 9951 9943 9936 9929 9921 9915 9908 9900 9894 9887 9880 9872 9864 9857 9851 9844 9837 9832 9827 9821 9813 9806 9802 9798 9792 9786 9781 9778 9774 9767 9758 9751 9746 9743 9742 9741 9738 9735 9733 9732 9730 9729 9728 9727 9726 9725 9724 9722 9721 9720 9718 9716 9714 9713 9713 9714 9716 9717 9718 9720 9721 9722 9725 9728 9727 9727 9729 9733 9735 9737 9741 9744 9750 9758 9761 9763
10004 9996 9989 9983 9977 9970 9963 9955 9947 9939 9931 9924 9916 9909 9903 9895 9888 9882 9875 9867 9859 9852 9845 9838 9830 9823 9818 9813 9807 9800 9793 9789 9785 9779 9773 9769 9765 9761 9755 9748 9741 9735 9730 9730 9728 9725 9722 9721 9720 9719 9717 9716 9715 9715 9714 9713 9711 9710 9708 9706 9704 9702 9700 9698 9699 9702 9704 9705 9707 9707 9706 9709 9711 9712 9712 9714 9717 9719 9723 9728 9731 9735 9742 9746 9748
9990 9983 9976 9971 9964 9958 9951 9943 9935 9927 9919 9912 9904 9898 9890 9883 9876 9870 9863 9855 9847 9840 9832 9825 9817 9810 9804 9799 9795 9788 9780 9776 9773 9767 9760 9757 9754 9748 9742 9736 9730 9724 9720 9718 9715 9711 9710 9709 9707 9707 9705 9704 9703 9703 9702 9701 9700 9698 9695 9693 9691 9690 9687 9686 9687 9689 9690 9692 9693 9692 9691 9692 9696 9698 9700 9701 9703 9707 9711 9714 9716 9719 9724 9730 9733
9977 9971 9965 9958 9952 9945 9938 9930 9923 9915 9907 9899 9892 9885 9878 9871 9864 9857 9851 9843 9835 9827 9820 9812 9804 9797 9791 9787 9783 9776 9768 9763 9761 9755 9749 9746 9743 9737 9730 9725 9719 9715 9710 9707 9703 9700 9698 9697 9696 9694 9693 9691 9691 9690 9690 9690 9688 9686 9683 9680 9679 9677 9674 9674 9676 9677 9678 9678 9678 9677 9677 9679 9682 9685 9687 9687 9689 9693 9696 9698 9699 9703 9710 9715 9717
9965 9959 9952 9946 9940 9933 9925 9918 9910 9902 9895 9887 9880 9873 9865 9859 9852 9845 9838 9831 9823 9815 9807 9800 9792 9784 9779 9776 9771 9765 9757 9751 9749 9745 9738 9736 9733 9726 9719 9713 9709 9706 9701 9696 9692 9689 9687 9686 9685 9683 9681 9679 9679 9677 9677 9678 9677 9674 9671 9668 9666 9664 9662 9663 9665 9665 9665 9665 9663 9662 9663 9666 9670 9671 9671 9671 9673 9677 9682 9685 9686 9691 9697 9700 9701
9953 9947 9940 9934 9927 9920 9913 9906 9898 9889 9882 9875 9867 9860 9853 9846 9840 9833 9826 9819 9811 9803 9795 9788 9780 9771 9767 9764 9760 9755 9747 9740 9738 9735 9729 9725 9723 9717 9709 9703 9699 9696 9691 9686 9682 9680 9678 9676 9675 9673 9671 9669 9667 9665 9665 9666 9665 9661 9658 9656 9653 9651 9650 9652 9652 9650 9650 9650 9649 9649 9650 9652 9655 9656 9655 9656 9659 9663 9670 9673 9673 9677 9682 9684 9686
9941 9935 9928 9921 9914 9907 9900 9893 9885 9877 9870 9862 9855 9848 9841 9835 9828 9821 9814 9807 9799 9791 9783 9776 9768 9760 9756 9753 9749 9744 9738 9730 9727 9725 9720 9715 9712 9707 9700 9694 9690 9686 9681 9676 9673 9670 9668 9666 9664 9663 9662 9659 9657 9655 9653 9654 9654 9651 9647 9644 9642 9640 9640 9639 9637 9635 9635 9636 9636 9637 9638 9638 9640 9642 9643 9644 9646 9650 9656 9659 9660 9663 9666 9669 9671
9929 9922 9916 9909 9902 9895 9887 9880 9872 9864 9857 9850 9843 9836 9829 9824 9817 9810 9803 9796 9788 9780 9771 9765 9758 9750 9745 9742 9738 9733 9728 9721 9716 9714 9710 9705 9701 9698 9692 9685 9681 9678 9671 9666 9664 9661 9659 9656 9654 9653 9652 9650 9648 9646 9643 9642 9643 9642 9638 9634 9632 9630 9629 9626 9623 9622 9623 9623 9623 9623 9623 9624 9628 9631 9632 9631 9632 9636 9641 9646 9648 9649 9652 9654 9656
9918 9910 9903 9896 9889 9882 9875 9867 9860 9853 9845 9839 9832 9824 9818 9813 9806 9799 9793 9785 9777 9769 9760 9754 9748 9740 9734 9731 9727 9722 9718 9712 9707 9703 9700 9695 9691 9688 9683 9677 9673 9669 9663 9657 9655 9653 9649 9646 9644 9642 9642 9640 9638 9636 9633 9631 9631 9631 9629 9626 9623 9621 9617 9614 9611 9611 9611 9611 9610 9609 9609 9610 9614 9618 9620 9620 9620 9622 9627 9631 9634 9636 9638 9640 9642
9905 9898 9891 9884 9877 9869 9862 9855 9848 9841 9834 9828 9821 9814 9807 9802 9795 9789 9782 9775 9767 9758 9750 9744 9739 9731 9724 9719 9716 9712 9708 9703 9698 9693 9689 9685 9681 9677 9674 9669 9664 9661 9655 9649 9646 9643 9640 9636 9634 9632 9631 9630 9628 9626 9623 9621 9620 9620 9618 9616 9615 9612 9608 9604 9601 9599 9599 9598 9597 9596 9596 9597 9600 9603 9606 9608 9608 9610 9614 9618 9621 9624 9625 9626 9628
9893 9885 9878 9872 9864 9857 9850 9843 9837 9830 9824 9817 9810 9803 9797 9791 9784 9778 9772 9765 9757 9747 9740 9735 9729 9722 9714 9709 9705 9702 9698 9694 9690 9685 9679 9674 9671 9668 9664 9659 9655 9652 9648 9642 9638 9635 9630 9626 9623 9622 9620 9619 9617 9615 9613 9611 9610 9609 9607 9605 9604 9602 9598 9594 9592 9590 9588 9586 9585 9584 9583 9584 9587 9589 9592 9593 9595 9597 9601 9605 9609 9611 9611 9612 9614
9881 9873 9867 9860 9853 9846 9839 9832 9826 9820 9813 9807 9800 9793 9787 9781 9774 9767 9761 9755 9746 9738 9731 9725 9719 9712 9705 9699 9695 9692 9688 9684 9681 9676 9671 9665 9661 9658 9653 9648 9645 9643 9639 9635 9631 9627 9622 9617 9614 9612 9610 9608 9606 9604 9602 9601 9599 9598 9596 9594 9593 9591 9588 9585 9582 9580 9578 9575 9574 9573 9571 9572 9574 9576 9577 9579 9581 9584 9588 9592 9596 9598 9599 9600 9601
9869 9862 9855 9849 9842 9836 9829 9821 9815 9809 9803 9797 9790 9783 9776 9770 9764 9757 9751 9744 9736 9728 9722 9715 9709 9702 9696 9691 9686 9681 9678 9676 9672 9668 9663 9658 9652 9648 9642 9637 9634 9632 9628 9625 9622 9618 9613 9609 9605 9603 9600 9597 9595 9593 9591 9589 9588 9586 9585 9583 9581 9579 9577 9574 9572 9570 9568 9566 9565 9563 9561 9561 9562 9562 9563 9565 9567 9570 9574 9578 9583 9585 9586 9589 9591
9858 9851 9844 9838 9831 9825 9818 9811 9805 9799 9792 9786 9780 9772 9766 9760 9754 9747 9742 9734 9726 9719 9713 9707 9700 9693 9687 9682 9677 9671 9667 9666 9663 9659 9655 9651 9645 9639 9633 9628 9624 9620 9617 9614 9612 9608 9603 9599 9597 9594 9591 9588 9585 9583 9580 9578 9576 9574 9572 9571 9569 9568 9565 9563 9561 9559 9557 9556 9555 9553 9551 9550 9551 9551 9552 9553 9554 9556 9560 9565 9569 9571 9574 9579 9581
9847 9840 9834 9828 9821 9814 9808 9801 9795 9788 9781 9775 9769 9762 9756 9750 9743 9737 9732 9726 9718 9710 9704 9698 9692 9685 9678 9674 9669 9662 9657 9656 9654 9651 9647 9643 9637 9631 9625 9619 9614 9610 9607 9604 9601 9596 9591 9589 9587 9585 9582 9579 9576 9573 9570 9568 9566 9563 9561 9559 9557 9555 9553 9551 9550 9548 9547 9546 9544 9542 9541 9541 9541 9541 9541 9542 9541 9542 9546 9551 9555 9557 9562 9567 9569
9838 9831 9825 9818 9811 9804 9798 9791 9785 9778 9771 9764 9757 9751 9745 9740 9734 9727 9722 9717 9711 9703 9696 9690 9683 9677 9670 9665 9660 9654 9647 9644 9643 9641 9637 9633 9627 9621 9616 9610 9606 9601 9598 9595 9591 9584 9579 9577 9575 9572 9571 9569 9566 9563 9560 9558 9556 9552 9550 9547 9545 9543 9541 9540 9538 9537 9536 9535 9533 9531 9530 9531 9531 9531 9531 9531 9530 9531 9534 9538 9542 9545 9549 9555 9556
9828 9821 9815 9808 9801 9795 9788 9781 9775 9768 9761 9754 9747 9740 9734 9729 9725 9718 9712 9707 9703 9696 9689 9682 9676 9670 9663 9656 9651 9646 9641 9636 9632 9630 9628 9625 9619 9613 9607 9601 9597 9593 9590 9587 9582 9575 9571 9569 9565 9562 9560 9559 9556 9554 9551 9549 9547 9544 9541 9539 9535 9532 9529 9528 9527 9526 9524 9523 9521 9520 9520 9520 9520 9520 9521 9520 9520 9521 9523 9527 9530 9533 9537 9541 9543
9819 9812 9805 9799 9792 9785 9779 9772 9765 9759 9752 9745 9738 9730 9723 9717 9714 9711 9705 9698 9693 9688 9682 9675 9668 9663 9657 9649 9642 9636 9631 9626 9622 9619 9618 9616 9612 9607 9600 9594 9589 9585 9582 9578 9573 9567 9563 9560 9556 9552 9551 9549 9547 9545 9543 9540 9537 9535 9533 9531 9527 9524 9520 9517 9515 9514 9512 9511 9510 9510 9510 9510 9509 9510 9511 9511 9510 9511 9513 9516 9518 9521 9525 9528 9529
9810 9803 9796 9789 9782 9776 9770 9763 9756 9749 9743 9736 9729 9722 9715 9707 9701 9699 9697 9692 9686 9681 9676 9669 9662 9656 9651 9645 9638 9630 9623 9617 9612 9607 9604 9602 9599 9596 9591 9585 9580 9577 9573 9569 9564 9558 9552 9548 9544 9539 9537 9535 9533 9532 9530 9529 9526 9524 9522 9520 9518 9516 9513 9509 9505 9502 9500 9499 9499 9499 9499 9499 9500 9500 9501 9501 9501 9501 9503 9505 9508 9511 9513 9515 9516
9801 9794 9787 9780 9773 9767 9760 9754 9747 9740 9734 9727 9720 9714 9707 9700 9692 9686 9683 9680 9677 9674 9670 9664 9658 9651 9644 9638 9633 9627 9621 9615 9608 9602 9597 9592 9588 9584 9579 9574 9569 9566 9562 9558 9555 9550 9544 9539 9534 9529 9526 9523 9519 9516 9514 9513 9512 9510 9509 9508 9506 9505 9503 9501 9497 9493 9490 9488 9488 9488 9488 9489 9490 9490 9491 9492 9492 9492 9493 9495 9498 9500 9502 9503 9503
9793 9786 9779 9772 9765 9758 9751 9745 9738 9732 9725 9718 9712 9705 9699 9692 9686 9678 9672 9667 9664 9662 9660 9657 9652 9646 9639 9632 9625 9620 9615 9611 9606 9600 9594 9588 9582 9576 9570 9564 9559 9556 9551 9547 9543 9539 9534 9529 9524 9520 9517 9513 9510 9506 9503 9501 9498 9496 9495 9494 9493 9492 9491 9490 9488 9485 9482 9480 9478 9477 9478 9478 9479 9480 9481 9482 9483 9483 9484 9486 9487 9489 9491 9492 9492
9784 9777 9771 9764 9757 9750 9743 9736 9730 9723 9717 9710 9703 9697 9690 9684 9678 9672 9665 9659 9653 9648 9646 9644 9641 9637 9631 9625 9618 9612 9607 9603 9599 9594 9589 9584 9578 9572 9565 9558 9552 9547 9542 9538 9534 9530 9524 9519 9515 9510 9507 9503 9500 9497 9494 9491 9488 9486 9484 9482 9480 9479 9478 9478 9477 9475 9473 9471 9469 9468 9468 9468 9469 9470 9470 9471 9473 9474 9475 9477 9478 9479 9480 9482 9482
9776 9769 9762 9756 9749 9742 9735 9729 9722 9715 9709 9702 9695 9688 9682 9676 9670 9664 9658 9653 9647 9640 9635 9632 9629 9625 9621 9616 9610 9603 9597 9593 9589 9584 9579 9575 9570 9565 9559 9552 9546 9540 9534 9529 9525 9521 9516 9511 9506 9501 9497 9493 9490 9487 9484 9482 9479 9476 9474 9472 9470 9468 9467 9467 9466 9465 9464 9463 9461 9460 9460 9459 9460 9460 9460 9461 9463 9465 9466 9468 9469 9469 9471 9472 9472
9768 9761 9754 9747 9741 9734 9727 9721 9715 9708 9701 9694 9687 9681 9674 9669 9663 9657 9651 9645 9640 9634 9628 9623 9619 9614 9610 9606 9601 9594 9588 9583 9579 9575 9570 9565 9560 9555 9550 9544 9538 9532 9526 9521 9517 9512 9507 9502 9498 9493 9488 9484 9480 9477 9474 9472 9469 9466 9464 9462 9460 9458 9457 9456 9456 9455 9454 9454 9453 9452 9452 9451 9451 9452 9452 9452 9454 9456 9457 9458 9459 9460 9461 9462 9463
9760 9753 9746 9739 9733 9726 9719 9713 9707 9700 9694 9687 9680 9673 9667 9661 9655 9649 9644 9638 9633 9627 9622 9616 9611 9606 9600 9595 9591 9586 9580 9574 9570 9564 9559 9554 9550 9545 9540 9535 9530 9525 9519 9514 9509 9504 9499 9494 9490 9485 9480 9476 9472 9468 9465 9463 9460 9457 9455 9453 9451 9450 9448 9447 9446 9445 9445 9444 9444 9444 9443 9443 9443 9444 9444 9444 9446 9448 9449 9449 9450 9451 9452 9453 9455
9752 9745 9739 9732 9725 9718 9712 9705 9699 9692 9686 9680 9673 9666 9660 9654 9648 9642 9636 9631 9625 9620 9614 9609 9604 9599 9593 9587 9582 9577 9571 9566 9561 9555 9549 9544 9539 9534 9529 9524 9519 9515 9511 9506 9502 9497 9492 9487 9481 9477 9472 9467 9463 9459 9456 9453 9451 9448 9445 9444 9442 9441 9439 9438 9437 9436 9435 9435 9435 9435 9435 9435 9436 9436 9436 9436 9438 9440 9440 9440 9441 9442 9444 9445 9448
9744 9737 9731 9724 9717 9711 9704 9698 9691 9685 9678 9672 9666 9659 9653 9647 9641 9635 9629 9623 9617 9612 9607 9602 9596 9591 9586 9581 9575 9569 9563 9557 9552 9546 9540 9534 9529 9523 9518 9512 9507 9503 9498 9495 9491 9487 9483 9478 9473 9469 9464 9459 9455 9451 9447 9444 9441 9438 9436 9434 9433 9432 9431 9430 9428 9427 9426 9426 9427 9427 9427 9427 9428 9428 9428 9429 9430 9431 9432 9432 9433 9434 9436 9438 9441
9736 9729 9723 9717 9710 9703 9697 9690 9684 9678 9671 9665 9658 9652 9646 9640 9634 9628 9622 9617 9610 9604 9599 9594 9589 9584 9579 9574 9569 9563 9557 9551 9544 9538 9532 9526 9520 9514 9508 9502 9497 9492 9487 9482 9479 9475 9471 9467 9463 9460 9456 9451 9447 9443 9439 9435 9433 9430 9427 9425 9424 9424 9423 9422 9420 9418 9418 9418 9419 9419 9419 9420 9420 9420 9421 9422 9422 9423 9424 9425 9425 9427 9429 9432 9434
9728 9722 9716 9709 9703 9696 9689 9683 9677 9670 9664 9658 9652 9645 9639 9633 9627 9621 9615 9610 9604 9598 9592 9586 9581 9576 9571 9566 9561 9556 9550 9544 9538 9531 9525 9519 9512 9507 9501 9495 9490 9484 9479 9474 9469 9465 9460 9456 9452 9449 9446 9443 9439 9435 9432 9428 9425 9422 9420 9418 9417 9416 9415 9414 9412 9410 9410 9410 9411 9412 9412 9412 9412 9412 9413 9414 9415 9415 9416 9417 9418 9420 9423 9425 9427
9721 9715 9708 9702 9696 9689 9682 9676 9669 9663 9657 9651 9645 9639 9632 9626 9620 9615 9609 9603 9598 9592 9586 9580 9574 9568 9563 9558 9553 9548 9542 9537 9531 9525 9518 9512 9505 9499 9494 9488 9483 9477 9472 9467 9462 9456 9451 9447 9442 9439 9436 9433 9430 9427 9424 9421 9418 9415 9413 9411 9410 9408 9407 9406 9405 9403 9403 9404 9404 9405 9405 9405 9404 9405 9406 9407 9407 9408 9409 9411 9412 9414 9416 9419 9421
9714 9708 9701 9695 9689 9682 9676 9669 9662 9656 9650 9644 9638 9632 9626 9620 9614 9608 9602 9597 9591 9585 9580 9574 9568 9562 9556 9550 9545 9540 9534 9528 9522 9516 9510 9503 9497 9491 9486 9480 9475 9470 9465 9460 9454 9449 9444 9439 9434 9430 9426 9423 9421 9418 9415 9413 9410 9408 9406 9404 9403 9401 9400 9399 9398 9397 9397 9397 9398 9398 9397 9397 9398 9398 9399 9400 9400 9402 9403 9404 9406 9408 9410 9412 9414
9707 9701 9694 9688 9682 9675 9669 9663 9656 9649 9643 9637 9631 9626 9620 9614 9608 9602 9596 9591 9585 9579 9573 9568 9562 9556 9550 9544 9538 9532 9526 9520 9514 9508 9501 9495 9489 9483 9478 9472 9467 9462 9457 9452 9447 9442 9436 9432 9427 9422 9418 9415 9412 9409 9407 9405 9403 9401 9399 9397 9396 9394 9393 9392 9392 9391 9391 9391 9391 9391 9390 9391 9391 9392 9392 9393 9394 9396 9397 9399 9400 9402 9404 9406 9408
9701 9694 9688 9681 9675 9668 9662 9656 9649 9643 9637 9631 9625 9619 9613 9608 9602 9596 9590 9584 9579 9573 9567 9561 9555 9549 9543 9537 9532 9526 9520 9514 9507 9501 9495 9488 9482 9476 9470 9465 9459 9454 9449 9444 9438 9433 9429 9424 9419 9415 9412 9408 9405 9402 9400 9398 9396 9394 9392 9391 9389 9388 9387 9386 9386 9385 9385 9385 9384 9384 9384 9385 9385 9386 9386 9387 9389 9390 9391 9393 9395 9397 9398 9400 9402
9694 9688 9682 9675 9668 9661 9655 9649 9643 9636 9630 9624 9618 9612 9606 9601 9595 9590 9584 9578 9572 9566 9560 9554 9548 9543 9537 9531 9525 9519 9513 9507 9501 9494 9488 9481 9475 9469 9463 9458 9452 9447 9441 9436 9431 9426 9421 9416 9412 9408 9405 9401 9398 9396 9393 9391 9389 9387 9386 9384 9383 9382 9381 9380 9380 9379 9379 9379 9378 9378 9379 9379 9380 9380 9381 9382 9383 9385 9386 9388 9389 9391 9393 9395 9397
9688 9681 9675 9669 9662 9655 9648 9642 9636 9630 9624 9618 9612 9606 9600 9594 9588 9583 9577 9571 9566 9560 9554 9548 9542 9536 9530 9524 9519 9512 9506 9500 9494 9488 9481 9475 9468 9462 9456 9451 9445 9440 9434 9428 9423 9418 9414 9409 9405 9402 9398 9395 9392 9390 9387 9385 9383 9382 9380 9379 9377 9376 9375 9375 9374 9374 9374 9373 9373 9373 9373 9374 9374 9375 9376 9377 9378 9380 9381 9383 9384 9386 9388 9390 9393
9681 9674 9668 9661 9655 9649 9642 9636 9629 9623 9617 9611 9605 9599 9593 9588 9582 9576 9571 9565 9559 9553 9547 9542 9536 9530 9524 9518 9512 9506 9499 9493 9487 9480 9474 9468 9462 9456 9450 9444 9439 9433 9427 9422 9417 9412 9407 9403 9399 9396 9392 9389 9386 9384 9382 9380 9378 9376 9374 9373 9372 9371 9370 9370 9369 9369 9369 9368 9368 9368 9369 9369 9370 9371 9372 9373 9374 9375 9377 9378 9380 9382 9384 9386 9388
9674 9668 9661 9655 9648 9642 9636 9629 9623 9617 9611 9605 9598 9592 9587 9581 9576 9570 9565 9559 9553 9547 9541 9535 9530 9524 9518 9512 9506 9499 9493 9486 9480 9474 9467 9461 9455 9449 9443 9437 9432 9426 9421 9415 9410 9406 9401 9397 9394 9390 9387 9384 9381 9378 9376 9374 9372 9371 9369 9368 9367 9366 9365 9365 9364 9364 9364 9364 9364 9364 9364 9365 9366 9367 9368 9369 9370 9371 9373 9374 9376 9378 9380 9382 9385
9667 9661 9655 9648 9642 9636 9629 9623 9617 9611 9604 9598 9592 9586 9580 9575 9569 9564 9558 9553 9547 9541 9535 9529 9524 9518 9512 9506 9500 9494 9487 9480 9474 9467 9461 9455 9449 9443 9437 9431 9426 9420 9415 9410 9405 9400 9396 9392 9388 9385 9382 9379 9376 9373 9371 9369 9368 9366 9365 9364 9363 9362 9361 9361 9360 9360 9360 9359 9360 9360 9360 9361 9362 9363 9364 9365 9366 9368 9369 9371 9373 9375 9377 9379 9382